Time,TemperatureF,DewpointF,PressureIn,WindDirection,WindDirectionDegrees,WindSpeedMPH,WindSpeedGustMPH,Humidity,HourlyPrecipIn,Conditions,Clouds,dailyrainin,SoftwareType,DateUTC
2013-02-12 06:23:00,27.5,23.9,30.13,West,276,2.0,2.0,86,0.00,,,0.00,Wunderground v.1.15,2013-02-12 12:23:00,
2013-02-12 06:25:00,27.5,23.9,30.12,WNW,295,2.0,2.0,86,0.00,,,0.00,Wunderground v.1.15,2013-02-12 12:25:00,
2013-02-12 06:26:00,27.5,23.6,30.12,WNW,291,2.0,2.0,85,0.00,,,0.00,Wunderground v.1.15,2013-02-12 12:26:00,
2013-02-12 06:27:00,27.5,23.6,30.13,WNW,288,1.0,2.0,85,0.00,,,0.00,Wunderground v.1.15,2013-02-12 12:27:00,
2013-02-12 06:31:00,27.5,23.9,30.13,WNW,285,1.0,2.0,86,0.00,,,0.00,Wunderground v.1.15,2013-02-12 12:31:00,
2013-02-12 06:32:00,27.5,23.9,30.13,WNW,285,1.0,2.0,86,0.00,,,0.00,Wunderground v.1.15,2013-02-12 12:32:00,
2013-02-12 06:33:00,27.5,23.9,30.13,West,270,1.0,1.0,86,0.00,,,0.00,Wunderground v.1.15,2013-02-12 12:33:00,
2013-02-12 06:38:00,27.5,23.6,30.14,WNW,287,1.0,4.0,85,0.00,,,0.00,Wunderground v.1.15,2013-02-12 12:38:00,
2013-02-12 06:39:00,27.5,23.6,30.14,West,271,1.0,4.0,85,0.00,,,0.00,Wunderground v.1.15,2013-02-12 12:39:00,
2013-02-12 06:40:00,27.5,23.6,30.14,West,281,1.0,4.0,85,0.00,,,0.00,Wunderground v.1.15,2013-02-12 12:40:00,
2013-02-12 06:41:00,27.5,23.6,30.14,West,268,1.0,4.0,85,0.00,,,0.00,Wunderground v.1.15,2013-02-12 12:41:00,
2013-02-12 06:43:00,27.4,23.5,30.14,West,281,2.0,3.0,85,0.00,,,0.00,Wunderground v.1.15,2013-02-12 12:43:00,
2013-02-12 06:44:00,27.4,23.5,30.14,West,270,2.0,3.0,85,0.00,,,0.00,Wunderground v.1.15,2013-02-12 12:44:00,
2013-02-12 06:47:00,27.4,23.5,30.14,West,267,2.0,3.0,85,0.00,,,0.00,Wunderground v.1.15,2013-02-12 12:47:00,
2013-02-12 06:49:00,27.4,23.5,30.14,West,281,2.0,3.0,85,0.00,,,0.00,Wunderground v.1.15,2013-02-12 12:49:00,
2013-02-12 06:51:00,27.4,23.5,30.14,West,280,2.0,3.0,85,0.00,,,0.00,Wunderground v.1.15,2013-02-12 12:51:00,
2013-02-12 06:54:00,27.3,23.4,30.15,NW,312,2.0,2.0,85,0.00,,,0.00,Wunderground v.1.15,2013-02-12 12:54:00,
2013-02-12 06:56:00,27.3,23.4,30.15,WNW,287,2.0,2.0,85,0.00,,,0.00,Wunderground v.1.15,2013-02-12 12:56:00,
2013-02-12 06:57:00,27.4,23.5,30.15,West,278,2.0,2.0,85,0.00,,,0.00,Wunderground v.1.15,2013-02-12 12:57:00,
2013-02-12 06:59:00,27.4,23.5,30.15,West,269,1.0,2.0,85,0.00,,,0.00,Wunderground v.1.15,2013-02-12 12:59:00,
2013-02-12 07:02:00,27.3,23.4,30.15,NW,311,1.0,7.0,85,0.00,,,0.00,Wunderground v.1.15,2013-02-12 13:02:00,
2013-02-12 07:04:00,27.3,23.4,30.15,NW,308,1.0,7.0,85,0.00,,,0.00,Wunderground v.1.15,2013-02-12 13:04:00,
2013-02-12 07:06:00,27.3,23.4,30.15,NW,316,1.0,7.0,85,0.00,,,0.00,Wunderground v.1.15,2013-02-12 13:06:00,
2013-02-12 07:08:00,27.3,23.4,30.15,WSW,249,1.0,7.0,85,0.00,,,0.00,Wunderground v.1.15,2013-02-12 13:08:00,
2013-02-12 07:09:00,27.3,23.4,30.14,NW,316,1.0,7.0,85,0.00,,,0.00,Wunderground v.1.15,2013-02-12 13:09:00,
2013-02-12 07:10:00,27.3,23.4,30.15,WNW,298,1.0,1.0,85,0.00,,,0.00,Wunderground v.1.15,2013-02-12 13:10:00,
2013-02-12 07:11:00,27.4,23.5,30.15,NW,316,1.0,1.0,85,0.00,,,0.00,Wunderground v.1.15,2013-02-12 13:11:00,
2013-02-12 07:14:00,27.4,23.5,30.14,West,267,1.0,3.0,85,0.00,,,0.00,Wunderground v.1.15,2013-02-12 13:14:00,
2013-02-12 07:16:00,27.4,23.5,30.15,WNW,284,1.0,3.0,85,0.00,,,0.00,Wunderground v.1.15,2013-02-12 13:16:00,
2013-02-12 07:17:00,27.4,23.5,30.14,NW,321,1.0,3.0,85,0.00,,,0.00,Wunderground v.1.15,2013-02-12 13:17:00,
2013-02-12 07:20:00,27.4,23.5,30.15,WNW,298,1.0,1.0,85,0.00,,,0.00,Wunderground v.1.15,2013-02-12 13:20:00,
2013-02-12 07:22:00,27.4,23.5,30.15,WNW,293,1.0,1.0,85,0.00,,,0.00,Wunderground v.1.15,2013-02-12 13:22:00,
2013-02-12 07:23:00,27.4,23.5,30.14,WNW,294,1.0,1.0,85,0.00,,,0.00,Wunderground v.1.15,2013-02-12 13:23:00,
2013-02-12 07:25:00,27.5,23.9,30.14,NW,314,1.0,1.0,86,0.00,,,0.00,Wunderground v.1.15,2013-02-12 13:25:00,
2013-02-12 07:28:00,27.4,23.5,30.14,WNW,284,1.0,1.0,85,0.00,,,0.00,Wunderground v.1.15,2013-02-12 13:28:00,
2013-02-12 07:30:00,27.5,23.6,30.14,WNW,288,1.0,1.0,85,0.00,,,0.00,Wunderground v.1.15,2013-02-12 13:30:00,
2013-02-12 07:33:00,27.5,23.6,30.14,West,274,1.0,1.0,85,0.00,,,0.00,Wunderground v.1.15,2013-02-12 13:33:00,
2013-02-12 07:34:00,27.5,23.6,30.14,West,273,1.0,1.0,85,0.00,,,0.00,Wunderground v.1.15,2013-02-12 13:34:00,
2013-02-12 07:35:00,27.5,23.6,30.15,West,274,1.0,1.0,85,0.00,,,0.00,Wunderground v.1.15,2013-02-12 13:35:00,
2013-02-12 07:36:00,27.5,23.6,30.15,West,276,1.0,1.0,85,0.00,,,0.00,Wunderground v.1.15,2013-02-12 13:36:00,
2013-02-12 07:38:00,27.5,23.6,30.14,West,276,0.0,1.0,85,0.00,,,0.00,Wunderground v.1.15,2013-02-12 13:38:00,
2013-02-12 07:40:00,27.5,23.6,30.14,NW,308,0.0,0.0,85,0.00,,,0.00,Wunderground v.1.15,2013-02-12 13:40:00,
2013-02-12 07:41:00,27.5,23.6,30.14,NNW,340,0.0,0.0,85,0.00,,,0.00,Wunderground v.1.15,2013-02-12 13:41:00,
2013-02-12 07:43:00,27.5,23.6,30.14,WNW,298,0.0,0.0,85,0.00,,,0.00,Wunderground v.1.15,2013-02-12 13:43:00,
2013-02-12 07:45:00,27.6,23.7,30.14,NNW,327,0.0,0.0,85,0.00,,,0.00,Wunderground v.1.15,2013-02-12 13:45:00,
2013-02-12 07:46:00,27.6,23.7,30.14,NW,319,0.0,0.0,85,0.00,,,0.00,Wunderground v.1.15,2013-02-12 13:46:00,
2013-02-12 07:47:00,27.6,23.7,30.14,NW,311,0.0,0.0,85,0.00,,,0.00,Wunderground v.1.15,2013-02-12 13:47:00,
2013-02-12 07:48:00,27.6,23.7,30.14,WNW,283,0.0,0.0,85,0.00,,,0.00,Wunderground v.1.15,2013-02-12 13:48:00,
2013-02-12 07:51:00,27.6,23.7,30.14,NW,305,0.0,0.0,85,0.00,,,0.00,Wunderground v.1.15,2013-02-12 13:51:00,
2013-02-12 07:52:00,27.7,23.8,30.14,WNW,290,0.0,0.0,85,0.00,,,0.00,Wunderground v.1.15,2013-02-12 13:52:00,
2013-02-12 07:53:00,27.7,23.8,30.14,WNW,291,0.0,0.0,85,0.00,,,0.00,Wunderground v.1.15,2013-02-12 13:53:00,
2013-02-12 07:54:00,27.7,23.8,30.14,West,273,0.0,0.0,85,0.00,,,0.00,Wunderground v.1.15,2013-02-12 13:54:00,
2013-02-12 07:56:00,27.7,23.8,30.14,WNW,283,0.0,0.0,85,0.00,,,0.00,Wunderground v.1.15,2013-02-12 13:56:00,
2013-02-12 07:59:00,27.8,23.9,30.15,WNW,283,0.0,0.0,85,0.00,,,0.00,Wunderground v.1.15,2013-02-12 13:59:00,
2013-02-12 08:03:00,27.9,24.0,30.15,WNW,288,0.0,1.0,85,0.00,,,0.00,Wunderground v.1.15,2013-02-12 14:03:00,
2013-02-12 08:04:00,27.9,24.0,30.15,WNW,285,0.0,1.0,85,0.00,,,0.00,Wunderground v.1.15,2013-02-12 14:04:00,
2013-02-12 08:05:00,27.9,24.0,30.15,West,269,0.0,1.0,85,0.00,,,0.00,Wunderground v.1.15,2013-02-12 14:05:00,
2013-02-12 08:06:00,27.9,24.0,30.15,WNW,288,0.0,1.0,85,0.00,,,0.00,Wunderground v.1.15,2013-02-12 14:06:00,
2013-02-12 08:08:00,27.9,24.0,30.15,WNW,284,0.0,1.0,85,0.00,,,0.00,Wunderground v.1.15,2013-02-12 14:08:00,
2013-02-12 08:09:00,28.0,24.1,30.15,WNW,285,0.0,1.0,85,0.00,,,0.00,Wunderground v.1.15,2013-02-12 14:09:00,
2013-02-12 08:12:00,28.0,24.1,30.15,NW,311,0.0,0.0,85,0.00,,,0.00,Wunderground v.1.15,2013-02-12 14:12:00,
2013-02-12 08:13:00,28.0,24.1,30.15,West,281,0.0,0.0,85,0.00,,,0.00,Wunderground v.1.15,2013-02-12 14:13:00,
2013-02-12 08:14:00,28.0,24.1,30.14,WNW,303,0.0,0.0,85,0.00,,,0.00,Wunderground v.1.15,2013-02-12 14:14:00,
2013-02-12 08:17:00,28.1,24.2,30.15,WNW,287,0.0,0.0,85,0.00,,,0.00,Wunderground v.1.15,2013-02-12 14:17:00,
2013-02-12 08:18:00,28.1,24.2,30.15,WNW,302,0.0,0.0,85,0.00,,,0.00,Wunderground v.1.15,2013-02-12 14:18:00,
2013-02-12 08:19:00,28.2,24.3,30.15,WNW,290,0.0,3.0,85,0.00,,,0.00,Wunderground v.1.15,2013-02-12 14:19:00,
2013-02-12 08:22:00,28.2,24.3,30.16,WSW,249,0.0,0.0,85,0.00,,,0.00,Wunderground v.1.15,2013-02-12 14:22:00,
2013-02-12 08:23:00,28.2,24.3,30.16,West,267,0.0,0.0,85,0.00,,,0.00,Wunderground v.1.15,2013-02-12 14:23:00,
2013-02-12 08:24:00,28.2,24.3,30.16,WSW,253,0.0,5.0,85,0.00,,,0.00,Wunderground v.1.15,2013-02-12 14:24:00,
2013-02-12 08:28:00,28.2,24.3,30.15,West,271,2.0,8.0,85,0.00,,,0.00,Wunderground v.1.15,2013-02-12 14:28:00,
2013-02-12 08:29:00,28.2,24.3,30.15,West,281,3.0,8.0,85,0.00,,,0.00,Wunderground v.1.15,2013-02-12 14:29:00,
2013-02-12 08:30:00,28.1,24.2,30.15,WNW,284,3.0,3.0,85,0.00,,,0.00,Wunderground v.1.15,2013-02-12 14:30:00,
2013-02-12 08:34:00,28.2,24.3,30.15,WNW,299,3.0,3.0,85,0.00,,,0.00,Wunderground v.1.15,2013-02-12 14:34:00,
2013-02-12 08:35:00,28.2,24.3,30.15,WNW,284,2.0,3.0,85,0.00,,,0.00,Wunderground v.1.15,2013-02-12 14:35:00,
2013-02-12 08:36:00,28.2,24.0,30.15,WNW,290,2.0,3.0,84,0.00,,,0.00,Wunderground v.1.15,2013-02-12 14:36:00,
2013-02-12 08:40:00,28.2,24.0,30.15,WNW,285,2.0,2.0,84,0.00,,,0.00,Wunderground v.1.15,2013-02-12 14:40:00,
2013-02-12 08:42:00,28.2,24.0,30.15,West,276,2.0,5.0,84,0.00,,,0.00,Wunderground v.1.15,2013-02-12 14:42:00,
2013-02-12 08:43:00,28.2,24.0,30.15,West,262,2.0,5.0,84,0.00,,,0.00,Wunderground v.1.15,2013-02-12 14:43:00,
2013-02-12 08:44:00,28.2,24.0,30.15,WNW,294,2.0,5.0,84,0.00,,,0.00,Wunderground v.1.15,2013-02-12 14:44:00,
2013-02-12 08:47:00,28.3,24.1,30.15,West,280,2.0,5.0,84,0.00,,,0.00,Wunderground v.1.15,2013-02-12 14:47:00,
2013-02-12 08:49:00,28.3,24.1,30.15,West,276,2.0,5.0,84,0.00,,,0.00,Wunderground v.1.15,2013-02-12 14:49:00,
2013-02-12 08:50:00,28.4,24.2,30.15,West,271,1.0,2.0,84,0.00,,,0.00,Wunderground v.1.15,2013-02-12 14:50:00,
2013-02-12 08:52:00,28.4,24.2,30.15,West,276,1.0,2.0,84,0.00,,,0.00,Wunderground v.1.15,2013-02-12 14:52:00,
2013-02-12 08:54:00,28.4,24.2,30.15,WSW,256,1.0,3.0,84,0.00,,,0.00,Wunderground v.1.15,2013-02-12 14:54:00,
2013-02-12 08:55:00,28.4,24.2,30.15,WNW,291,1.0,3.0,84,0.00,,,0.00,Wunderground v.1.15,2013-02-12 14:55:00,
2013-02-12 08:57:00,28.5,24.3,30.15,West,270,1.0,3.0,84,0.00,,,0.00,Wunderground v.1.15,2013-02-12 14:57:00,
2013-02-12 08:58:00,28.5,24.3,30.15,West,281,1.0,3.0,84,0.00,,,0.00,Wunderground v.1.15,2013-02-12 14:58:00,
2013-02-12 09:00:00,28.6,24.4,30.15,WNW,287,1.0,4.0,84,0.00,,,0.00,Wunderground v.1.15,2013-02-12 15:00:00,
2013-02-12 09:05:00,28.7,24.5,30.15,WNW,292,2.0,7.0,84,0.00,,,0.00,Wunderground v.1.15,2013-02-12 15:05:00,
2013-02-12 09:07:00,28.8,24.6,30.15,WNW,288,2.0,7.0,84,0.00,,,0.00,Wunderground v.1.15,2013-02-12 15:07:00,
2013-02-12 09:08:00,28.8,24.6,30.15,WNW,291,2.0,7.0,84,0.00,,,0.00,Wunderground v.1.15,2013-02-12 15:08:00,
2013-02-12 09:10:00,28.8,24.3,30.15,West,276,2.0,3.0,83,0.00,,,0.00,Wunderground v.1.15,2013-02-12 15:10:00,
2013-02-12 09:13:00,28.9,24.4,30.16,West,272,1.0,3.0,83,0.00,,,0.00,Wunderground v.1.15,2013-02-12 15:13:00,
2013-02-12 09:15:00,28.9,24.7,30.16,West,278,1.0,3.0,84,0.00,,,0.00,Wunderground v.1.15,2013-02-12 15:15:00,
2013-02-12 09:16:00,28.9,24.4,30.16,West,272,1.0,3.0,83,0.00,,,0.00,Wunderground v.1.15,2013-02-12 15:16:00,
2013-02-12 09:18:00,29.0,24.8,30.16,NNW,338,1.0,3.0,84,0.00,,,0.00,Wunderground v.1.15,2013-02-12 15:18:00,
2013-02-12 09:20:00,29.0,24.5,30.16,West,273,1.0,5.0,83,0.00,,,0.00,Wunderground v.1.15,2013-02-12 15:20:00,
2013-02-12 09:22:00,29.0,24.8,30.17,West,264,2.0,8.0,84,0.00,,,0.00,Wunderground v.1.15,2013-02-12 15:22:00,
2013-02-12 09:27:00,29.0,24.5,30.16,West,264,4.0,8.0,83,0.00,,,0.00,Wunderground v.1.15,2013-02-12 15:27:00,
2013-02-12 09:28:00,29.0,24.5,30.16,WSW,252,4.0,8.0,83,0.00,,,0.00,Wunderground v.1.15,2013-02-12 15:28:00,
2013-02-12 09:31:00,29.1,24.6,30.16,NW,308,4.0,4.0,83,0.00,,,0.00,Wunderground v.1.15,2013-02-12 15:31:00,
2013-02-12 09:33:00,29.2,24.7,30.15,WNW,301,3.0,4.0,83,0.00,,,0.00,Wunderground v.1.15,2013-02-12 15:33:00,
2013-02-12 09:36:00,29.3,24.5,30.15,WSW,252,1.0,7.0,82,0.00,,,0.00,Wunderground v.1.15,2013-02-12 15:36:00,
2013-02-12 09:38:00,29.3,24.5,30.15,WSW,252,2.0,7.0,82,0.00,,,0.00,Wunderground v.1.15,2013-02-12 15:38:00,
2013-02-12 09:42:00,29.6,24.8,30.14,West,268,2.0,3.0,82,0.00,,,0.00,Wunderground v.1.15,2013-02-12 15:42:00,
2013-02-12 09:43:00,29.7,24.9,30.14,WNW,291,2.0,3.0,82,0.00,,,0.00,Wunderground v.1.15,2013-02-12 15:43:00,
2013-02-12 09:44:00,29.8,25.0,30.14,NW,319,2.0,3.0,82,0.00,,,0.00,Wunderground v.1.15,2013-02-12 15:44:00,
2013-02-12 09:45:00,29.9,25.1,30.14,West,272,2.0,3.0,82,0.00,,,0.00,Wunderground v.1.15,2013-02-12 15:45:00,
2013-02-12 09:47:00,30.0,24.9,30.15,West,277,2.0,4.0,81,0.00,,,0.00,Wunderground v.1.15,2013-02-12 15:47:00,
2013-02-12 09:49:00,30.0,24.9,30.14,West,270,1.0,4.0,81,0.00,,,0.00,Wunderground v.1.15,2013-02-12 15:49:00,
2013-02-12 09:50:00,30.0,24.9,30.14,West,274,1.0,5.0,81,0.00,,,0.00,Wunderground v.1.15,2013-02-12 15:50:00,
2013-02-12 09:52:00,30.1,25.0,30.15,West,276,1.0,5.0,81,0.00,,,0.00,Wunderground v.1.15,2013-02-12 15:52:00,
2013-02-12 09:54:00,30.2,25.1,30.15,WNW,285,1.0,5.0,81,0.00,,,0.00,Wunderground v.1.15,2013-02-12 15:54:00,
2013-02-12 09:56:00,30.2,24.8,30.14,West,276,1.0,5.0,80,0.00,,,0.00,Wunderground v.1.15,2013-02-12 15:56:00,
2013-02-12 09:57:00,30.2,24.8,30.14,NW,322,1.0,5.0,80,0.00,,,0.00,Wunderground v.1.15,2013-02-12 15:57:00,
2013-02-12 09:59:00,30.1,24.4,30.14,West,280,2.0,5.0,79,0.00,,,0.00,Wunderground v.1.15,2013-02-12 15:59:00,
2013-02-12 10:01:00,30.0,24.6,30.15,WNW,288,2.0,3.0,80,0.00,,,0.00,Wunderground v.1.15,2013-02-12 16:01:00,
2013-02-12 10:03:00,30.0,24.6,30.15,West,263,3.0,8.0,80,0.00,,,0.00,Wunderground v.1.15,2013-02-12 16:03:00,
2013-02-12 10:05:00,29.8,24.1,30.15,West,259,4.0,8.0,79,0.00,,,0.00,Wunderground v.1.15,2013-02-12 16:05:00,
2013-02-12 10:07:00,29.9,24.5,30.15,WNW,290,4.0,8.0,80,0.00,,,0.00,Wunderground v.1.15,2013-02-12 16:07:00,
2013-02-12 10:09:00,30.1,24.7,30.16,WNW,291,4.0,8.0,80,0.00,,,0.00,Wunderground v.1.15,2013-02-12 16:09:00,
2013-02-12 10:10:00,30.2,24.8,30.16,WSW,242,4.0,7.0,80,0.00,,,0.00,Wunderground v.1.15,2013-02-12 16:10:00,
2013-02-12 10:12:00,30.4,25.3,30.16,WSW,253,4.0,10.0,81,0.00,,,0.00,Wunderground v.1.15,2013-02-12 16:12:00,
2013-02-12 10:13:00,30.4,25.0,30.15,WSW,255,5.0,10.0,80,0.00,,,0.00,Wunderground v.1.15,2013-02-12 16:13:00,
2013-02-12 10:16:00,30.4,25.0,30.15,West,263,5.0,10.0,80,0.00,,,0.00,Wunderground v.1.15,2013-02-12 16:16:00,
2013-02-12 10:18:00,30.5,25.4,30.15,WSW,245,5.0,10.0,81,0.00,,,0.00,Wunderground v.1.15,2013-02-12 16:18:00,
2013-02-12 10:19:00,30.5,25.1,30.15,West,264,6.0,10.0,80,0.00,,,0.00,Wunderground v.1.15,2013-02-12 16:19:00,
2013-02-12 10:22:00,30.5,25.1,30.15,West,265,5.0,6.0,80,0.00,,,0.00,Wunderground v.1.15,2013-02-12 16:22:00,
2013-02-12 10:23:00,30.6,25.2,30.15,WSW,246,5.0,6.0,80,0.00,,,0.00,Wunderground v.1.15,2013-02-12 16:23:00,
2013-02-12 10:24:00,30.6,25.2,30.14,WNW,291,5.0,6.0,80,0.00,,,0.00,Wunderground v.1.15,2013-02-12 16:24:00,
2013-02-12 10:26:00,30.7,25.3,30.14,WNW,298,4.0,6.0,80,0.00,,,0.00,Wunderground v.1.15,2013-02-12 16:26:00,
2013-02-12 10:31:00,30.9,25.2,30.14,WNW,290,2.0,3.0,79,0.00,,,0.00,Wunderground v.1.15,2013-02-12 16:31:00,
2013-02-12 10:32:00,30.9,25.5,30.14,WNW,291,2.0,5.0,80,0.00,,,0.00,Wunderground v.1.15,2013-02-12 16:32:00,
2013-02-12 10:34:00,30.9,25.2,30.14,WNW,288,3.0,5.0,79,0.00,,,0.00,Wunderground v.1.15,2013-02-12 16:34:00,
2013-02-12 10:36:00,30.9,25.5,30.13,WNW,295,3.0,5.0,80,0.00,,,0.00,Wunderground v.1.15,2013-02-12 16:36:00,
2013-02-12 10:37:00,31.0,25.6,30.13,WNW,301,3.0,5.0,80,0.00,,,0.00,Wunderground v.1.15,2013-02-12 16:37:00,
2013-02-12 10:39:00,31.2,25.7,30.13,WSW,255,3.0,5.0,80,0.00,,,0.00,Wunderground v.1.15,2013-02-12 16:39:00,
2013-02-12 10:41:00,31.2,25.4,30.13,West,277,2.0,2.0,79,0.00,,,0.00,Wunderground v.1.15,2013-02-12 16:41:00,
2013-02-12 10:42:00,31.3,25.5,30.13,WNW,284,2.0,2.0,79,0.00,,,0.00,Wunderground v.1.15,2013-02-12 16:42:00,
2013-02-12 10:44:00,31.4,25.6,30.12,WNW,300,1.0,2.0,79,0.00,,,0.00,Wunderground v.1.15,2013-02-12 16:44:00,
2013-02-12 10:47:00,31.5,25.7,30.12,West,277,1.0,3.0,79,0.00,,,0.00,Wunderground v.1.15,2013-02-12 16:47:00,
2013-02-12 10:51:00,31.6,25.8,30.11,West,278,1.0,2.0,79,0.00,,,0.00,Wunderground v.1.15,2013-02-12 16:51:00,
2013-02-12 10:52:00,31.7,25.9,30.11,WNW,283,1.0,2.0,79,0.00,,,0.00,Wunderground v.1.15,2013-02-12 16:52:00,
2013-02-12 10:53:00,31.8,26.3,30.11,West,281,1.0,2.0,80,0.00,,,0.00,Wunderground v.1.15,2013-02-12 16:53:00,
2013-02-12 10:56:00,32.3,26.5,30.11,WNW,292,1.0,3.0,79,0.00,,,0.00,Wunderground v.1.15,2013-02-12 16:56:00,
2013-02-12 10:57:00,32.4,26.3,30.11,West,278,1.0,3.0,78,0.00,,,0.00,Wunderground v.1.15,2013-02-12 16:57:00,
2013-02-12 10:58:00,32.6,26.5,30.11,West,273,1.0,5.0,78,0.00,,,0.00,Wunderground v.1.15,2013-02-12 16:58:00,
2013-02-12 11:00:00,32.6,26.2,30.11,West,278,2.0,3.0,77,0.00,,,0.00,Wunderground v.1.15,2013-02-12 17:00:00,
2013-02-12 11:04:00,32.5,26.1,30.10,WNW,283,2.0,5.0,77,0.00,,,0.00,Wunderground v.1.15,2013-02-12 17:04:00,
2013-02-12 11:07:00,32.4,26.0,30.10,NNW,335,3.0,7.0,77,0.00,,,0.00,Wunderground v.1.15,2013-02-12 17:07:00,
2013-02-12 11:09:00,32.5,26.4,30.10,NNE,27,3.0,7.0,78,0.00,,,0.00,Wunderground v.1.15,2013-02-12 17:09:00,
2013-02-12 11:11:00,32.7,26.6,30.10,NW,320,2.0,3.0,78,0.00,,,0.00,Wunderground v.1.15,2013-02-12 17:11:00,
2013-02-12 11:14:00,32.9,26.5,30.10,West,276,2.0,3.0,77,0.00,,,0.00,Wunderground v.1.15,2013-02-12 17:14:00,
2013-02-12 11:15:00,33.0,26.6,30.10,NW,320,1.0,3.0,77,0.00,,,0.00,Wunderground v.1.15,2013-02-12 17:15:00,
2013-02-12 11:16:00,33.1,26.7,30.10,WNW,297,1.0,3.0,77,0.00,,,0.00,Wunderground v.1.15,2013-02-12 17:16:00,
2013-02-12 11:21:00,33.2,26.8,30.10,WNW,287,1.0,3.0,77,0.00,,,0.00,Wunderground v.1.15,2013-02-12 17:21:00,
2013-02-12 11:22:00,33.2,26.5,30.10,West,269,1.0,3.0,76,0.00,,,0.00,Wunderground v.1.15,2013-02-12 17:22:00,
2013-02-12 11:23:00,33.2,26.1,30.10,West,267,1.0,3.0,75,0.00,,,0.00,Wunderground v.1.15,2013-02-12 17:23:00,
2013-02-12 11:27:00,33.1,26.4,30.10,WNW,288,1.0,3.0,76,0.00,,,0.00,Wunderground v.1.15,2013-02-12 17:27:00,
2013-02-12 11:29:00,33.1,26.0,30.10,WNW,300,1.0,3.0,75,0.00,,,0.00,Wunderground v.1.15,2013-02-12 17:29:00,
2013-02-12 11:31:00,33.4,26.6,30.10,WNW,291,1.0,2.0,76,0.00,,,0.00,Wunderground v.1.15,2013-02-12 17:31:00,
2013-02-12 11:32:00,33.4,26.6,30.10,NW,311,1.0,2.0,76,0.00,,,0.00,Wunderground v.1.15,2013-02-12 17:32:00,
2013-02-12 11:33:00,33.4,26.3,30.10,WNW,300,1.0,2.0,75,0.00,,,0.00,Wunderground v.1.15,2013-02-12 17:33:00,
2013-02-12 11:38:00,33.4,26.6,30.10,West,278,1.0,4.0,76,0.00,,,0.00,Wunderground v.1.15,2013-02-12 17:38:00,
2013-02-12 11:39:00,33.5,26.7,30.10,WNW,295,1.0,5.0,76,0.00,,,0.00,Wunderground v.1.15,2013-02-12 17:39:00,
2013-02-12 11:40:00,33.4,26.3,30.10,West,267,1.0,3.0,75,0.00,,,0.00,Wunderground v.1.15,2013-02-12 17:40:00,
2013-02-12 11:41:00,33.4,26.0,30.10,WNW,284,2.0,5.0,74,0.00,,,0.00,Wunderground v.1.15,2013-02-12 17:41:00,
2013-02-12 11:45:00,33.3,26.2,30.10,West,280,2.0,6.0,75,0.00,,,0.00,Wunderground v.1.15,2013-02-12 17:45:00,
2013-02-12 11:46:00,33.4,26.6,30.10,WNW,283,3.0,6.0,76,0.00,,,0.00,Wunderground v.1.15,2013-02-12 17:46:00,
2013-02-12 11:47:00,33.4,26.3,30.10,WNW,293,3.0,6.0,75,0.00,,,0.00,Wunderground v.1.15,2013-02-12 17:47:00,
2013-02-12 11:50:00,33.6,26.8,30.10,North,353,3.0,3.0,76,0.00,,,0.00,Wunderground v.1.15,2013-02-12 17:50:00,
2013-02-12 11:51:00,33.7,26.9,30.10,NNW,347,3.0,3.0,76,0.00,,,0.00,Wunderground v.1.15,2013-02-12 17:51:00,
2013-02-12 11:53:00,33.8,26.7,30.10,WNW,300,2.0,3.0,75,0.00,,,0.00,Wunderground v.1.15,2013-02-12 17:53:00,
2013-02-12 11:55:00,33.8,26.7,30.10,WNW,302,2.0,3.0,75,0.00,,,0.00,Wunderground v.1.15,2013-02-12 17:55:00,
2013-02-12 11:57:00,33.7,26.6,30.10,WNW,289,1.0,3.0,75,0.00,,,0.00,Wunderground v.1.15,2013-02-12 17:57:00,
2013-02-12 12:00:00,33.6,26.5,30.11,NW,314,0.0,0.0,75,0.00,,,0.00,Wunderground v.1.15,2013-02-12 18:00:00,
2013-02-12 12:01:00,33.6,26.5,30.11,NE,55,0.0,0.0,75,0.00,,,0.00,Wunderground v.1.15,2013-02-12 18:01:00,
2013-02-12 12:02:00,33.7,26.6,30.11,NNW,329,0.0,4.0,75,0.00,,,0.00,Wunderground v.1.15,2013-02-12 18:02:00,
2013-02-12 12:07:00,33.6,26.2,30.10,NNW,345,1.0,4.0,74,0.00,,,0.00,Wunderground v.1.15,2013-02-12 18:07:00,
2013-02-12 12:08:00,33.6,26.2,30.10,NW,305,1.0,4.0,74,0.00,,,0.00,Wunderground v.1.15,2013-02-12 18:08:00,
2013-02-12 12:09:00,33.6,26.2,30.10,West,276,1.0,4.0,74,0.00,,,0.00,Wunderground v.1.15,2013-02-12 18:09:00,
2013-02-12 12:13:00,33.6,26.5,30.09,West,267,2.0,5.0,75,0.00,,,0.00,Wunderground v.1.15,2013-02-12 18:13:00,
2013-02-12 12:14:00,33.7,26.6,30.09,West,266,2.0,7.0,75,0.00,,,0.00,Wunderground v.1.15,2013-02-12 18:14:00,
2013-02-12 12:16:00,33.8,27.0,30.09,West,259,2.0,7.0,76,0.00,,,0.00,Wunderground v.1.15,2013-02-12 18:16:00,
2013-02-12 12:19:00,34.1,27.3,30.09,WNW,288,3.0,7.0,76,0.00,,,0.00,Wunderground v.1.15,2013-02-12 18:19:00,
2013-02-12 12:20:00,34.1,27.0,30.09,WNW,293,3.0,3.0,75,0.00,,,0.00,Wunderground v.1.15,2013-02-12 18:20:00,
2013-02-12 12:22:00,34.2,26.8,30.09,WSW,255,3.0,4.0,74,0.00,,,0.00,Wunderground v.1.15,2013-02-12 18:22:00,
2013-02-12 12:23:00,34.1,26.7,30.09,WNW,288,3.0,4.0,74,0.00,,,0.00,Wunderground v.1.15,2013-02-12 18:23:00,
2013-02-12 12:25:00,34.2,27.1,30.08,North,6,3.0,4.0,75,0.00,,,0.00,Wunderground v.1.15,2013-02-12 18:25:00,
2013-02-12 12:28:00,34.6,27.8,30.08,West,264,2.0,4.0,76,0.00,,,0.00,Wunderground v.1.15,2013-02-12 18:28:00,
2013-02-12 12:29:00,34.7,27.6,30.08,West,278,2.0,5.0,75,0.00,,,0.00,Wunderground v.1.15,2013-02-12 18:29:00,
2013-02-12 12:32:00,34.5,27.1,30.08,WNW,289,2.0,3.0,74,0.00,,,0.00,Wunderground v.1.15,2013-02-12 18:32:00,
2013-02-12 12:34:00,34.7,27.6,30.08,WNW,297,2.0,3.0,75,0.00,,,0.00,Wunderground v.1.15,2013-02-12 18:34:00,
2013-02-12 12:35:00,34.8,27.4,30.08,WNW,297,2.0,3.0,74,0.00,,,0.00,Wunderground v.1.15,2013-02-12 18:35:00,
2013-02-12 12:37:00,34.9,27.1,30.08,NW,315,2.0,3.0,73,0.00,,,0.00,Wunderground v.1.15,2013-02-12 18:37:00,
2013-02-12 12:40:00,35.0,27.2,30.08,West,264,2.0,2.0,73,0.00,,,0.00,Wunderground v.1.15,2013-02-12 18:40:00,
2013-02-12 12:43:00,35.0,26.9,30.08,WSW,256,2.0,5.0,72,0.00,,,0.00,Wunderground v.1.15,2013-02-12 18:43:00,
2013-02-12 12:45:00,34.7,26.6,30.09,WSW,249,2.0,5.0,72,0.00,,,0.00,Wunderground v.1.15,2013-02-12 18:45:00,
2013-02-12 12:46:00,34.5,26.4,30.09,WNW,290,2.0,5.0,72,0.00,,,0.00,Wunderground v.1.15,2013-02-12 18:46:00,
2013-02-12 12:47:00,34.5,26.7,30.09,WSW,255,2.0,5.0,73,0.00,,,0.00,Wunderground v.1.15,2013-02-12 18:47:00,
2013-02-12 12:50:00,34.5,27.4,30.09,NW,315,2.0,2.0,75,0.00,,,0.00,Wunderground v.1.15,2013-02-12 18:50:00,
2013-02-12 12:52:00,34.6,27.2,30.09,West,270,1.0,2.0,74,0.00,,,0.00,Wunderground v.1.15,2013-02-12 18:52:00,
2013-02-12 12:54:00,34.6,27.2,30.09,West,278,1.0,2.0,74,0.00,,,0.00,Wunderground v.1.15,2013-02-12 18:54:00,
2013-02-12 12:55:00,34.5,27.1,30.09,West,274,1.0,3.0,74,0.00,,,0.00,Wunderground v.1.15,2013-02-12 18:55:00,
2013-02-12 12:58:00,34.5,27.1,30.08,West,278,1.0,3.0,74,0.00,,,0.00,Wunderground v.1.15,2013-02-12 18:58:00,
2013-02-12 12:59:00,34.6,27.5,30.08,WNW,286,1.0,3.0,75,0.00,,,0.00,Wunderground v.1.15,2013-02-12 18:59:00,
2013-02-12 13:00:00,34.7,27.6,30.08,NW,311,1.0,2.0,75,0.00,,,0.00,Wunderground v.1.15,2013-02-12 19:00:00,
2013-02-12 13:02:00,34.7,27.3,30.09,NW,307,1.0,3.0,74,0.00,,,0.00,Wunderground v.1.15,2013-02-12 19:02:00,
2013-02-12 13:06:00,34.8,27.4,30.09,NNW,328,2.0,3.0,74,0.00,,,0.00,Wunderground v.1.15,2013-02-12 19:06:00,
2013-02-12 13:07:00,34.9,27.5,30.09,North,354,1.0,3.0,74,0.00,,,0.00,Wunderground v.1.15,2013-02-12 19:07:00,
2013-02-12 13:09:00,35.1,27.3,30.09,NW,322,1.0,3.0,73,0.00,,,0.00,Wunderground v.1.15,2013-02-12 19:09:00,
2013-02-12 13:11:00,35.2,27.4,30.09,WNW,287,1.0,2.0,73,0.00,,,0.00,Wunderground v.1.15,2013-02-12 19:11:00,
2013-02-12 13:12:00,35.2,27.4,30.09,WSW,255,1.0,2.0,73,0.00,,,0.00,Wunderground v.1.15,2013-02-12 19:12:00,
2013-02-12 13:16:00,35.1,27.3,30.08,WNW,288,1.0,4.0,73,0.00,,,0.00,Wunderground v.1.15,2013-02-12 19:16:00,
2013-02-12 13:17:00,35.1,27.6,30.08,WNW,288,1.0,4.0,74,0.00,,,0.00,Wunderground v.1.15,2013-02-12 19:17:00,
2013-02-12 13:18:00,35.1,27.6,30.08,WSW,256,2.0,4.0,74,0.00,,,0.00,Wunderground v.1.15,2013-02-12 19:18:00,
2013-02-12 13:22:00,35.5,28.0,30.08,West,277,2.0,2.0,74,0.00,,,0.00,Wunderground v.1.15,2013-02-12 19:22:00,
2013-02-12 13:26:00,35.9,28.1,30.08,WSW,253,2.0,7.0,73,0.00,,,0.00,Wunderground v.1.15,2013-02-12 19:26:00,
2013-02-12 13:27:00,35.8,27.7,30.08,WSW,252,2.0,7.0,72,0.00,,,0.00,Wunderground v.1.15,2013-02-12 19:27:00,
2013-02-12 13:30:00,35.5,27.4,30.08,WSW,245,3.0,4.0,72,0.00,,,0.00,Wunderground v.1.15,2013-02-12 19:30:00,
2013-02-12 13:33:00,35.5,28.0,30.08,WNW,300,4.0,4.0,74,0.00,,,0.00,Wunderground v.1.15,2013-02-12 19:33:00,
2013-02-12 13:34:00,35.6,28.1,30.08,WSW,250,4.0,4.0,74,0.00,,,0.00,Wunderground v.1.15,2013-02-12 19:34:00,
2013-02-12 13:37:00,35.9,28.4,30.08,West,274,4.0,4.0,74,0.00,,,0.00,Wunderground v.1.15,2013-02-12 19:37:00,
2013-02-12 13:38:00,36.0,28.5,30.08,WNW,288,3.0,4.0,74,0.00,,,0.00,Wunderground v.1.15,2013-02-12 19:38:00,
2013-02-12 13:39:00,36.1,28.6,30.08,West,278,3.0,4.0,74,0.00,,,0.00,Wunderground v.1.15,2013-02-12 19:39:00,
2013-02-12 13:43:00,36.2,28.4,30.08,SW,224,3.0,9.0,73,0.00,,,0.00,Wunderground v.1.15,2013-02-12 19:43:00,
2013-02-12 13:44:00,36.3,28.1,30.08,WNW,294,3.0,9.0,72,0.00,,,0.00,Wunderground v.1.15,2013-02-12 19:44:00,
2013-02-12 13:47:00,36.5,28.7,30.07,West,270,3.0,9.0,73,0.00,,,0.00,Wunderground v.1.15,2013-02-12 19:47:00,
2013-02-12 13:48:00,36.5,28.7,30.07,WSW,249,3.0,9.0,73,0.00,,,0.00,Wunderground v.1.15,2013-02-12 19:48:00,
2013-02-12 13:49:00,36.5,28.3,30.07,WSW,252,4.0,9.0,72,0.00,,,0.00,Wunderground v.1.15,2013-02-12 19:49:00,
2013-02-12 13:52:00,36.3,27.8,30.07,NNW,348,4.0,4.0,71,0.00,,,0.00,Wunderground v.1.15,2013-02-12 19:52:00,
2013-02-12 13:54:00,36.3,28.1,30.07,West,266,3.0,5.0,72,0.00,,,0.00,Wunderground v.1.15,2013-02-12 19:54:00,
2013-02-12 13:57:00,36.3,28.5,30.07,WSW,240,4.0,6.0,73,0.00,,,0.00,Wunderground v.1.15,2013-02-12 19:57:00,
2013-02-12 13:58:00,36.3,28.5,30.07,WSW,246,4.0,6.0,73,0.00,,,0.00,Wunderground v.1.15,2013-02-12 19:58:00,
2013-02-12 14:00:00,36.3,28.5,30.06,WSW,245,4.0,5.0,73,0.00,,,0.00,Wunderground v.1.15,2013-02-12 20:00:00,
2013-02-12 14:01:00,36.3,28.5,30.06,WSW,239,4.0,5.0,73,0.00,,,0.00,Wunderground v.1.15,2013-02-12 20:01:00,
2013-02-12 14:03:00,36.3,28.1,30.06,SW,225,4.0,5.0,72,0.00,,,0.00,Wunderground v.1.15,2013-02-12 20:03:00,
2013-02-12 14:06:00,36.3,27.8,30.06,SSW,212,4.0,5.0,71,0.00,,,0.00,Wunderground v.1.15,2013-02-12 20:06:00,
2013-02-12 14:09:00,36.3,28.1,30.06,WSW,250,3.0,8.0,72,0.00,,,0.00,Wunderground v.1.15,2013-02-12 20:09:00,
2013-02-12 14:12:00,36.5,28.7,30.06,WSW,249,4.0,8.0,73,0.00,,,0.00,Wunderground v.1.15,2013-02-12 20:12:00,
2013-02-12 14:14:00,36.4,27.9,30.06,West,263,4.0,8.0,71,0.00,,,0.00,Wunderground v.1.15,2013-02-12 20:14:00,
2013-02-12 14:15:00,36.3,27.4,30.06,WSW,239,4.0,8.0,70,0.00,,,0.00,Wunderground v.1.15,2013-02-12 20:15:00,
2013-02-12 14:17:00,36.3,27.4,30.06,SW,224,5.0,8.0,70,0.00,,,0.00,Wunderground v.1.15,2013-02-12 20:17:00,
2013-02-12 14:20:00,36.4,28.2,30.06,WSW,255,4.0,8.0,72,0.00,,,0.00,Wunderground v.1.15,2013-02-12 20:20:00,
2013-02-12 14:22:00,36.5,28.0,30.06,West,262,5.0,8.0,71,0.00,,,0.00,Wunderground v.1.15,2013-02-12 20:22:00,
2013-02-12 14:24:00,36.5,27.6,30.06,WSW,253,4.0,8.0,70,0.00,,,0.00,Wunderground v.1.15,2013-02-12 20:24:00,
2013-02-12 14:25:00,36.5,27.6,30.06,WSW,242,5.0,8.0,70,0.00,,,0.00,Wunderground v.1.15,2013-02-12 20:25:00,
2013-02-12 14:27:00,36.5,28.0,30.06,WSW,252,5.0,8.0,71,0.00,,,0.00,Wunderground v.1.15,2013-02-12 20:27:00,
2013-02-12 14:29:00,36.6,27.7,30.06,WNW,300,5.0,8.0,70,0.00,,,0.00,Wunderground v.1.15,2013-02-12 20:29:00,
2013-02-12 14:30:00,36.7,27.8,30.06,WNW,288,4.0,4.0,70,0.00,,,0.00,Wunderground v.1.15,2013-02-12 20:30:00,
2013-02-12 14:31:00,36.8,27.9,30.06,WSW,256,4.0,4.0,70,0.00,,,0.00,Wunderground v.1.15,2013-02-12 20:31:00,
2013-02-12 14:34:00,37.0,28.1,30.06,SSW,208,2.0,4.0,70,0.00,,,0.00,Wunderground v.1.15,2013-02-12 20:34:00,
2013-02-12 14:35:00,37.1,28.6,30.06,WSW,240,2.0,7.0,71,0.00,,,0.00,Wunderground v.1.15,2013-02-12 20:35:00,
2013-02-12 14:36:00,37.1,28.9,30.06,West,276,2.0,7.0,72,0.00,,,0.00,Wunderground v.1.15,2013-02-12 20:36:00,
2013-02-12 14:37:00,37.2,28.7,30.06,West,259,2.0,7.0,71,0.00,,,0.00,Wunderground v.1.15,2013-02-12 20:37:00,
2013-02-12 14:39:00,37.3,28.8,30.06,West,281,2.0,7.0,71,0.00,,,0.00,Wunderground v.1.15,2013-02-12 20:39:00,
2013-02-12 14:40:00,37.4,28.5,30.06,West,263,3.0,3.0,70,0.00,,,0.00,Wunderground v.1.15,2013-02-12 20:40:00,
2013-02-12 14:42:00,37.5,28.6,30.06,WSW,248,3.0,4.0,70,0.00,,,0.00,Wunderground v.1.15,2013-02-12 20:42:00,
2013-02-12 14:44:00,37.5,27.9,30.06,WNW,288,4.0,4.0,68,0.00,,,0.00,Wunderground v.1.15,2013-02-12 20:44:00,
2013-02-12 14:45:00,37.6,28.0,30.06,West,276,4.0,4.0,68,0.00,,,0.00,Wunderground v.1.15,2013-02-12 20:45:00,
2013-02-12 14:49:00,37.6,28.0,30.05,West,270,2.0,4.0,68,0.00,,,0.00,Wunderground v.1.15,2013-02-12 20:49:00,
2013-02-12 14:50:00,37.6,28.3,30.05,West,280,2.0,2.0,69,0.00,,,0.00,Wunderground v.1.15,2013-02-12 20:50:00,
2013-02-12 14:53:00,37.9,28.6,30.05,West,269,1.0,3.0,69,0.00,,,0.00,Wunderground v.1.15,2013-02-12 20:53:00,
2013-02-12 14:54:00,37.9,28.6,30.05,WSW,242,1.0,3.0,69,0.00,,,0.00,Wunderground v.1.15,2013-02-12 20:54:00,
2013-02-12 14:55:00,38.0,29.1,30.05,SSW,203,1.0,4.0,70,0.00,,,0.00,Wunderground v.1.15,2013-02-12 20:55:00,
2013-02-12 14:57:00,37.9,28.6,30.05,WSW,250,2.0,5.0,69,0.00,,,0.00,Wunderground v.1.15,2013-02-12 20:57:00,
2013-02-12 14:59:00,37.8,28.9,30.05,WSW,250,2.0,6.0,70,0.00,,,0.00,Wunderground v.1.15,2013-02-12 20:59:00,
2013-02-12 15:01:00,37.6,28.0,30.05,WSW,240,3.0,7.0,68,0.00,,,0.00,Wunderground v.1.15,2013-02-12 21:01:00,
2013-02-12 15:03:00,37.5,27.9,30.05,West,278,4.0,7.0,68,0.00,,,0.00,Wunderground v.1.15,2013-02-12 21:03:00,
2013-02-12 15:04:00,37.5,28.2,30.05,WNW,282,4.0,7.0,69,0.00,,,0.00,Wunderground v.1.15,2013-02-12 21:04:00,
2013-02-12 15:06:00,37.7,28.4,30.05,West,259,4.0,7.0,69,0.00,,,0.00,Wunderground v.1.15,2013-02-12 21:06:00,
2013-02-12 15:07:00,37.7,28.1,30.05,West,271,4.0,7.0,68,0.00,,,0.00,Wunderground v.1.15,2013-02-12 21:07:00,
2013-02-12 15:09:00,37.7,28.1,30.05,West,259,3.0,7.0,68,0.00,,,0.00,Wunderground v.1.15,2013-02-12 21:09:00,
2013-02-12 15:10:00,37.7,28.1,30.05,WSW,249,3.0,3.0,68,0.00,,,0.00,Wunderground v.1.15,2013-02-12 21:10:00,
2013-02-12 15:13:00,37.9,28.6,30.05,West,259,2.0,5.0,69,0.00,,,0.00,Wunderground v.1.15,2013-02-12 21:13:00,
2013-02-12 15:15:00,37.8,28.2,30.05,SW,235,2.0,5.0,68,0.00,,,0.00,Wunderground v.1.15,2013-02-12 21:15:00,
2013-02-12 15:16:00,37.8,28.2,30.05,WSW,242,2.0,5.0,68,0.00,,,0.00,Wunderground v.1.15,2013-02-12 21:16:00,
2013-02-12 15:18:00,37.8,28.2,30.04,WSW,243,3.0,5.0,68,0.00,,,0.00,Wunderground v.1.15,2013-02-12 21:18:00,
2013-02-12 15:20:00,37.7,28.4,30.04,SW,236,3.0,4.0,69,0.00,,,0.00,Wunderground v.1.15,2013-02-12 21:20:00,
2013-02-12 15:21:00,37.7,28.4,30.04,WSW,252,4.0,4.0,69,0.00,,,0.00,Wunderground v.1.15,2013-02-12 21:21:00,
2013-02-12 15:25:00,37.7,28.4,30.04,SW,215,4.0,6.0,69,0.00,,,0.00,Wunderground v.1.15,2013-02-12 21:25:00,
2013-02-12 15:27:00,37.8,29.6,30.04,SSW,207,4.0,6.0,72,0.00,,,0.00,Wunderground v.1.15,2013-02-12 21:27:00,
2013-02-12 15:28:00,37.8,29.2,30.04,SSW,210,5.0,6.0,71,0.00,,,0.00,Wunderground v.1.15,2013-02-12 21:28:00,
2013-02-12 15:29:00,37.8,28.5,30.04,SW,225,5.0,6.0,69,0.00,,,0.00,Wunderground v.1.15,2013-02-12 21:29:00,
2013-02-12 15:30:00,37.8,28.9,30.04,SW,232,5.0,5.0,70,0.00,,,0.00,Wunderground v.1.15,2013-02-12 21:30:00,
2013-02-12 15:34:00,37.8,29.2,30.04,SSW,198,5.0,5.0,71,0.00,,,0.00,Wunderground v.1.15,2013-02-12 21:34:00,
2013-02-12 15:35:00,37.9,29.3,30.04,SW,232,5.0,8.0,71,0.00,,,0.00,Wunderground v.1.15,2013-02-12 21:35:00,
2013-02-12 15:36:00,37.9,28.6,30.04,WSW,256,5.0,8.0,69,0.00,,,0.00,Wunderground v.1.15,2013-02-12 21:36:00,
2013-02-12 15:37:00,37.9,28.3,30.04,WSW,239,5.0,8.0,68,0.00,,,0.00,Wunderground v.1.15,2013-02-12 21:37:00,
2013-02-12 15:39:00,37.9,28.6,30.04,WSW,249,5.0,8.0,69,0.00,,,0.00,Wunderground v.1.15,2013-02-12 21:39:00,
2013-02-12 15:41:00,37.9,28.3,30.04,WSW,238,5.0,5.0,68,0.00,,,0.00,Wunderground v.1.15,2013-02-12 21:41:00,
2013-02-12 15:42:00,38.0,28.7,30.04,WSW,239,5.0,6.0,69,0.00,,,0.00,Wunderground v.1.15,2013-02-12 21:42:00,
2013-02-12 15:44:00,38.0,28.4,30.04,WSW,242,6.0,8.0,68,0.00,,,0.00,Wunderground v.1.15,2013-02-12 21:44:00,
2013-02-12 15:45:00,38.0,28.4,30.04,WSW,239,6.0,8.0,68,0.00,,,0.00,Wunderground v.1.15,2013-02-12 21:45:00,
2013-02-12 15:47:00,38.0,28.4,30.04,WSW,250,5.0,8.0,68,0.00,,,0.00,Wunderground v.1.15,2013-02-12 21:47:00,
2013-02-12 15:48:00,38.1,28.8,30.04,SSW,212,5.0,8.0,69,0.00,,,0.00,Wunderground v.1.15,2013-02-12 21:48:00,
2013-02-12 15:49:00,38.1,29.2,30.04,West,264,5.0,8.0,70,0.00,,,0.00,Wunderground v.1.15,2013-02-12 21:49:00,
2013-02-12 15:53:00,38.2,28.6,30.04,South,173,5.0,6.0,68,0.00,,,0.00,Wunderground v.1.15,2013-02-12 21:53:00,
2013-02-12 15:58:00,38.3,28.7,30.04,SW,222,5.0,8.0,68,0.00,,,0.00,Wunderground v.1.15,2013-02-12 21:58:00,
2013-02-12 15:59:00,38.3,29.4,30.03,WSW,245,5.0,8.0,70,0.00,,,0.00,Wunderground v.1.15,2013-02-12 21:59:00,
2013-02-12 16:01:00,38.3,29.0,30.03,SW,226,5.0,5.0,69,0.00,,,0.00,Wunderground v.1.15,2013-02-12 22:01:00,
2013-02-12 16:04:00,38.4,29.5,30.03,WSW,249,5.0,5.0,70,0.00,,,0.00,Wunderground v.1.15,2013-02-12 22:04:00,
2013-02-12 16:05:00,38.4,29.5,30.03,SW,228,5.0,5.0,70,0.00,,,0.00,Wunderground v.1.15,2013-02-12 22:05:00,
2013-02-12 16:06:00,38.5,29.2,30.03,West,262,4.0,5.0,69,0.00,,,0.00,Wunderground v.1.15,2013-02-12 22:06:00,
2013-02-12 16:09:00,38.4,28.8,30.03,SW,231,4.0,5.0,68,0.00,,,0.00,Wunderground v.1.15,2013-02-12 22:09:00,
2013-02-12 16:10:00,38.3,28.3,30.04,WSW,252,4.0,4.0,67,0.00,,,0.00,Wunderground v.1.15,2013-02-12 22:10:00,
2013-02-12 16:11:00,38.3,28.3,30.03,WSW,245,3.0,4.0,67,0.00,,,0.00,Wunderground v.1.15,2013-02-12 22:11:00,
2013-02-12 16:15:00,38.3,28.7,30.03,SW,232,3.0,4.0,68,0.00,,,0.00,Wunderground v.1.15,2013-02-12 22:15:00,
2013-02-12 16:17:00,38.3,28.3,30.03,SW,219,3.0,4.0,67,0.00,,,0.00,Wunderground v.1.15,2013-02-12 22:17:00,
2013-02-12 16:19:00,38.3,28.7,30.03,WSW,250,2.0,5.0,68,0.00,,,0.00,Wunderground v.1.15,2013-02-12 22:19:00,
2013-02-12 16:20:00,38.3,28.7,30.03,WSW,248,3.0,6.0,68,0.00,,,0.00,Wunderground v.1.15,2013-02-12 22:20:00,
2013-02-12 16:24:00,38.3,28.7,30.02,West,259,3.0,6.0,68,0.00,,,0.00,Wunderground v.1.15,2013-02-12 22:24:00,
2013-02-12 16:27:00,38.2,28.6,30.02,SW,225,4.0,6.0,68,0.00,,,0.00,Wunderground v.1.15,2013-02-12 22:27:00,
2013-02-12 16:28:00,38.3,28.7,30.02,WSW,240,4.0,6.0,68,0.00,,,0.00,Wunderground v.1.15,2013-02-12 22:28:00,
2013-02-12 16:30:00,38.3,29.4,30.02,WSW,239,4.0,4.0,70,0.00,,,0.00,Wunderground v.1.15,2013-02-12 22:30:00,
2013-02-12 16:32:00,38.3,28.7,30.01,WSW,242,3.0,7.0,68,0.00,,,0.00,Wunderground v.1.15,2013-02-12 22:32:00,
2013-02-12 16:33:00,38.2,28.6,30.01,WSW,242,4.0,7.0,68,0.00,,,0.00,Wunderground v.1.15,2013-02-12 22:33:00,
2013-02-12 16:36:00,38.0,28.4,30.01,WSW,246,4.0,7.0,68,0.00,,,0.00,Wunderground v.1.15,2013-02-12 22:36:00,
2013-02-12 16:37:00,38.0,28.7,30.01,WSW,255,4.0,7.0,69,0.00,,,0.00,Wunderground v.1.15,2013-02-12 22:37:00,
2013-02-12 16:39:00,37.9,28.6,30.01,West,265,4.0,7.0,69,0.00,,,0.00,Wunderground v.1.15,2013-02-12 22:39:00,
2013-02-12 16:44:00,37.8,28.9,30.01,WSW,243,4.0,5.0,70,0.00,,,0.00,Wunderground v.1.15,2013-02-12 22:44:00,
2013-02-12 16:46:00,37.8,28.5,30.01,SSW,210,3.0,5.0,69,0.00,,,0.00,Wunderground v.1.15,2013-02-12 22:46:00,
2013-02-12 16:48:00,37.9,29.0,30.01,SSW,212,3.0,5.0,70,0.00,,,0.00,Wunderground v.1.15,2013-02-12 22:48:00,
2013-02-12 16:50:00,37.9,29.3,30.01,SSW,208,2.0,2.0,71,0.00,,,0.00,Wunderground v.1.15,2013-02-12 22:50:00,
2013-02-12 16:53:00,37.7,29.1,30.01,SW,228,1.0,2.0,71,0.00,,,0.00,Wunderground v.1.15,2013-02-12 22:53:00,
2013-02-12 16:55:00,37.6,29.4,30.00,SW,221,1.0,2.0,72,0.00,,,0.00,Wunderground v.1.15,2013-02-12 22:55:00,
2013-02-12 16:56:00,37.5,28.9,30.01,SW,226,1.0,2.0,71,0.00,,,0.00,Wunderground v.1.15,2013-02-12 22:56:00,
2013-02-12 16:58:00,37.2,29.0,30.00,WSW,256,1.0,2.0,72,0.00,,,0.00,Wunderground v.1.15,2013-02-12 22:58:00,
2013-02-12 17:00:00,36.9,28.4,30.01,WSW,248,0.0,0.0,71,0.00,,,0.00,Wunderground v.1.15,2013-02-12 23:00:00,
2013-02-12 17:01:00,36.8,28.6,30.01,SW,224,0.0,0.0,72,0.00,,,0.00,Wunderground v.1.15,2013-02-12 23:01:00,
2013-02-12 17:04:00,36.6,28.4,30.01,WSW,250,0.0,2.0,72,0.00,,,0.00,Wunderground v.1.15,2013-02-12 23:04:00,
2013-02-12 17:06:00,36.5,28.3,30.01,WSW,252,0.0,2.0,72,0.00,,,0.00,Wunderground v.1.15,2013-02-12 23:06:00,
2013-02-12 17:08:00,36.4,28.2,30.01,WSW,240,0.0,2.0,72,0.00,,,0.00,Wunderground v.1.15,2013-02-12 23:08:00,
2013-02-12 17:09:00,36.4,28.6,30.01,WSW,243,0.0,2.0,73,0.00,,,0.00,Wunderground v.1.15,2013-02-12 23:09:00,
2013-02-12 17:11:00,36.3,28.5,30.01,WSW,252,0.0,1.0,73,0.00,,,0.00,Wunderground v.1.15,2013-02-12 23:11:00,
2013-02-12 17:12:00,36.3,28.5,30.00,WSW,252,0.0,1.0,73,0.00,,,0.00,Wunderground v.1.15,2013-02-12 23:12:00,
2013-02-12 17:14:00,36.3,28.1,30.00,WSW,252,0.0,1.0,72,0.00,,,0.00,Wunderground v.1.15,2013-02-12 23:14:00,
2013-02-12 17:16:00,36.2,28.0,30.00,WSW,255,0.0,1.0,72,0.00,,,0.00,Wunderground v.1.15,2013-02-12 23:16:00,
2013-02-12 17:17:00,36.2,28.0,30.00,West,264,0.0,1.0,72,0.00,,,0.00,Wunderground v.1.15,2013-02-12 23:17:00,
2013-02-12 17:18:00,36.1,27.9,30.00,West,260,0.0,1.0,72,0.00,,,0.00,Wunderground v.1.15,2013-02-12 23:18:00,
2013-02-12 17:19:00,36.0,27.8,30.00,WSW,257,0.0,1.0,72,0.00,,,0.00,Wunderground v.1.15,2013-02-12 23:19:00,
2013-02-12 17:22:00,35.9,27.7,30.00,West,266,0.0,0.0,72,0.00,,,0.00,Wunderground v.1.15,2013-02-12 23:22:00,
2013-02-12 17:24:00,35.8,27.7,30.00,West,267,0.0,0.0,72,0.00,,,0.00,Wunderground v.1.15,2013-02-12 23:24:00,
2013-02-12 17:27:00,35.6,27.5,30.00,West,264,0.0,0.0,72,0.00,,,0.00,Wunderground v.1.15,2013-02-12 23:27:00,
2013-02-12 17:28:00,35.5,27.4,30.00,West,264,0.0,0.0,72,0.00,,,0.00,Wunderground v.1.15,2013-02-12 23:28:00,
2013-02-12 17:29:00,35.5,27.4,30.00,WSW,256,0.0,0.0,72,0.00,,,0.00,Wunderground v.1.15,2013-02-12 23:29:00,
2013-02-12 17:31:00,35.3,27.5,30.00,WSW,249,0.0,0.0,73,0.00,,,0.00,Wunderground v.1.15,2013-02-12 23:31:00,
2013-02-12 17:35:00,35.1,27.6,30.00,SW,232,0.0,0.0,74,0.00,,,0.00,Wunderground v.1.15,2013-02-12 23:35:00,
2013-02-12 17:36:00,35.0,27.5,30.00,SW,232,0.0,0.0,74,0.00,,,0.00,Wunderground v.1.15,2013-02-12 23:36:00,
2013-02-12 17:38:00,34.8,27.7,30.00,SW,225,0.0,0.0,75,0.00,,,0.00,Wunderground v.1.15,2013-02-12 23:38:00,
2013-02-12 17:40:00,34.6,27.8,30.00,SW,225,0.0,0.0,76,0.00,,,0.00,Wunderground v.1.15,2013-02-12 23:40:00,
2013-02-12 17:41:00,34.5,27.7,30.00,SW,226,0.0,0.0,76,0.00,,,0.00,Wunderground v.1.15,2013-02-12 23:41:00,
2013-02-12 17:45:00,34.0,27.5,30.00,SSW,203,0.0,0.0,77,0.00,,,0.00,Wunderground v.1.15,2013-02-12 23:45:00,
2013-02-12 17:47:00,33.9,27.4,30.00,SSW,203,0.0,0.0,77,0.00,,,0.00,Wunderground v.1.15,2013-02-12 23:47:00,
2013-02-12 17:48:00,33.7,27.6,30.00,SSW,203,0.0,0.0,78,0.00,,,0.00,Wunderground v.1.15,2013-02-12 23:48:00,
2013-02-12 17:49:00,33.7,27.6,30.00,SSW,203,0.0,0.0,78,0.00,,,0.00,Wunderground v.1.15,2013-02-12 23:49:00,
2013-02-12 17:50:00,33.6,27.5,30.00,SSW,203,0.0,0.0,78,0.00,,,0.00,Wunderground v.1.15,2013-02-12 23:50:00,
2013-02-12 17:52:00,33.4,27.3,30.00,SSW,203,0.0,0.0,78,0.00,,,0.00,Wunderground v.1.15,2013-02-12 23:52:00,
2013-02-12 17:53:00,33.3,27.5,30.00,SSW,203,0.0,0.0,79,0.00,,,0.00,Wunderground v.1.15,2013-02-12 23:53:00,
2013-02-12 17:55:00,33.1,27.3,30.00,SSW,203,0.0,0.0,79,0.00,,,0.00,Wunderground v.1.15,2013-02-12 23:55:00,
2013-02-12 17:56:00,32.9,27.1,30.00,SSW,203,0.0,0.0,79,0.00,,,0.00,Wunderground v.1.15,2013-02-12 23:56:00,
2013-02-12 17:58:00,32.8,27.3,30.00,SSW,203,0.0,0.0,80,0.00,,,0.00,Wunderground v.1.15,2013-02-12 23:58:00,
2013-02-12 17:59:00,32.7,27.2,30.00,SSW,203,0.0,0.0,80,0.00,,,0.00,Wunderground v.1.15,2013-02-12 23:59:00,
2013-02-12 18:03:00,32.4,26.9,30.00,SSW,203,0.0,0.0,80,0.00,,,0.00,Wunderground v.1.15,2013-02-13 00:03:00,
2013-02-12 18:04:00,32.4,26.9,30.00,SSW,203,0.0,0.0,80,0.00,,,0.00,Wunderground v.1.15,2013-02-13 00:04:00,
2013-02-12 18:06:00,32.3,26.8,30.00,SSW,203,0.0,0.0,80,0.00,,,0.00,Wunderground v.1.15,2013-02-13 00:06:00,
2013-02-12 18:08:00,32.1,26.6,30.00,SSW,203,0.0,0.0,80,0.00,,,0.00,Wunderground v.1.15,2013-02-13 00:08:00,
2013-02-12 18:11:00,31.8,26.3,30.00,SSW,203,0.0,0.0,80,0.00,,,0.00,Wunderground v.1.15,2013-02-13 00:11:00,
2013-02-12 18:15:00,31.7,26.5,30.00,SSW,203,0.0,0.0,81,0.00,,,0.00,Wunderground v.1.15,2013-02-13 00:15:00,
2013-02-12 18:16:00,31.7,26.5,30.00,SSW,203,0.0,0.0,81,0.00,,,0.00,Wunderground v.1.15,2013-02-13 00:16:00,
2013-02-12 18:18:00,31.8,26.6,30.00,SSW,203,0.0,0.0,81,0.00,,,0.00,Wunderground v.1.15,2013-02-13 00:18:00,
2013-02-12 18:20:00,31.7,26.5,30.00,SSW,203,0.0,0.0,81,0.00,,,0.00,Wunderground v.1.15,2013-02-13 00:20:00,
2013-02-12 18:21:00,31.7,26.2,30.00,SSW,203,0.0,0.0,80,0.00,,,0.00,Wunderground v.1.15,2013-02-13 00:21:00,
2013-02-12 18:23:00,31.6,26.1,30.00,SSW,203,0.0,0.0,80,0.00,,,0.00,Wunderground v.1.15,2013-02-13 00:23:00,
2013-02-12 18:25:00,31.5,26.3,30.00,SSW,203,0.0,0.0,81,0.00,,,0.00,Wunderground v.1.15,2013-02-13 00:25:00,
2013-02-12 18:26:00,31.4,26.2,30.00,SSW,203,0.0,0.0,81,0.00,,,0.00,Wunderground v.1.15,2013-02-13 00:26:00,
2013-02-12 18:28:00,31.3,26.1,30.00,SSW,203,0.0,0.0,81,0.00,,,0.00,Wunderground v.1.15,2013-02-13 00:28:00,
2013-02-12 18:29:00,31.2,26.0,30.00,SSW,203,0.0,0.0,81,0.00,,,0.00,Wunderground v.1.15,2013-02-13 00:29:00,
2013-02-12 18:30:00,31.2,26.0,30.00,SSW,203,0.0,0.0,81,0.00,,,0.00,Wunderground v.1.15,2013-02-13 00:30:00,
2013-02-12 18:34:00,30.8,26.0,30.00,SSW,203,0.0,0.0,82,0.00,,,0.00,Wunderground v.1.15,2013-02-13 00:34:00,
2013-02-12 18:37:00,30.6,26.1,30.00,SSW,203,0.0,0.0,83,0.00,,,0.00,Wunderground v.1.15,2013-02-13 00:37:00,
2013-02-12 18:39:00,30.6,26.3,30.00,SSW,203,0.0,0.0,84,0.00,,,0.00,Wunderground v.1.15,2013-02-13 00:39:00,
2013-02-12 18:40:00,30.6,26.3,30.00,SSW,203,0.0,0.0,84,0.00,,,0.00,Wunderground v.1.15,2013-02-13 00:40:00,
2013-02-12 18:45:00,30.5,26.5,30.00,SSW,203,0.0,0.0,85,0.00,,,0.00,Wunderground v.1.15,2013-02-13 00:45:00,
2013-02-12 18:46:00,30.5,26.5,30.00,SSW,203,0.0,0.0,85,0.00,,,0.00,Wunderground v.1.15,2013-02-13 00:46:00,
2013-02-12 18:50:00,30.2,25.9,30.00,SSW,203,0.0,0.0,84,0.00,,,0.00,Wunderground v.1.15,2013-02-13 00:50:00,
2013-02-12 18:51:00,30.1,25.8,30.00,SSW,203,0.0,0.0,84,0.00,,,0.00,Wunderground v.1.15,2013-02-13 00:51:00,
2013-02-12 18:53:00,29.9,25.7,29.99,SSW,203,0.0,0.0,84,0.00,,,0.00,Wunderground v.1.15,2013-02-13 00:53:00,
2013-02-12 18:55:00,29.7,25.5,29.99,SSW,203,0.0,0.0,84,0.00,,,0.00,Wunderground v.1.15,2013-02-13 00:55:00,
2013-02-12 18:56:00,29.7,25.5,29.99,SSW,203,0.0,0.0,84,0.00,,,0.00,Wunderground v.1.15,2013-02-13 00:56:00,
2013-02-12 18:58:00,29.6,25.4,29.99,SE,134,0.0,0.0,84,0.00,,,0.00,Wunderground v.1.15,2013-02-13 00:58:00,
2013-02-12 18:59:00,29.4,25.2,29.99,SE,134,0.0,0.0,84,0.00,,,0.00,Wunderground v.1.15,2013-02-13 00:59:00,
2013-02-12 19:04:00,29.2,25.3,29.99,SE,134,0.0,0.0,85,0.00,,,0.00,Wunderground v.1.15,2013-02-13 01:04:00,
2013-02-12 19:05:00,29.3,25.4,29.99,SE,134,0.0,0.0,85,0.00,,,0.00,Wunderground v.1.15,2013-02-13 01:05:00,
2013-02-12 19:09:00,29.3,25.4,29.99,SE,134,0.0,0.0,85,0.00,,,0.00,Wunderground v.1.15,2013-02-13 01:09:00,
2013-02-12 19:10:00,29.3,25.4,29.99,SE,134,0.0,0.0,85,0.00,,,0.00,Wunderground v.1.15,2013-02-13 01:10:00,
2013-02-12 19:11:00,29.3,25.4,29.99,SE,134,0.0,0.0,85,0.00,,,0.00,Wunderground v.1.15,2013-02-13 01:11:00,
2013-02-12 19:12:00,29.3,25.4,29.99,SE,134,0.0,0.0,85,0.00,,,0.00,Wunderground v.1.15,2013-02-13 01:12:00,
2013-02-12 19:16:00,29.2,25.3,29.99,SE,134,0.0,0.0,85,0.00,,,0.00,Wunderground v.1.15,2013-02-13 01:16:00,
2013-02-12 19:18:00,29.1,25.2,29.99,SE,134,0.0,0.0,85,0.00,,,0.00,Wunderground v.1.15,2013-02-13 01:18:00,
2013-02-12 19:20:00,29.2,25.3,29.99,SE,134,0.0,0.0,85,0.00,,,0.00,Wunderground v.1.15,2013-02-13 01:20:00,
2013-02-12 19:21:00,29.2,25.3,29.99,SE,134,0.0,0.0,85,0.00,,,0.00,Wunderground v.1.15,2013-02-13 01:21:00,
2013-02-12 19:23:00,29.2,25.3,29.99,SE,134,0.0,0.0,85,0.00,,,0.00,Wunderground v.1.15,2013-02-13 01:23:00,
2013-02-12 19:25:00,29.2,25.0,29.99,SE,134,0.0,0.0,84,0.00,,,0.00,Wunderground v.1.15,2013-02-13 01:25:00,
2013-02-12 19:26:00,29.2,25.0,29.99,SE,134,0.0,0.0,84,0.00,,,0.00,Wunderground v.1.15,2013-02-13 01:26:00,
2013-02-12 19:29:00,29.2,25.0,29.99,SE,134,0.0,0.0,84,0.00,,,0.00,Wunderground v.1.15,2013-02-13 01:29:00,
2013-02-12 19:31:00,29.1,24.9,29.99,SE,134,0.0,0.0,84,0.00,,,0.00,Wunderground v.1.15,2013-02-13 01:31:00,
2013-02-12 19:33:00,29.0,24.8,29.99,SE,134,0.0,0.0,84,0.00,,,0.00,Wunderground v.1.15,2013-02-13 01:33:00,
2013-02-12 19:34:00,29.0,24.8,29.98,SE,134,0.0,0.0,84,0.00,,,0.00,Wunderground v.1.15,2013-02-13 01:34:00,
2013-02-12 19:36:00,28.8,24.6,29.98,SE,134,0.0,0.0,84,0.00,,,0.00,Wunderground v.1.15,2013-02-13 01:36:00,
2013-02-12 19:38:00,28.7,24.5,29.98,SE,134,0.0,0.0,84,0.00,,,0.00,Wunderground v.1.15,2013-02-13 01:38:00,
2013-02-12 19:40:00,28.6,24.7,29.98,SE,134,0.0,0.0,85,0.00,,,0.00,Wunderground v.1.15,2013-02-13 01:40:00,
2013-02-12 19:42:00,28.5,24.6,29.98,SE,134,0.0,0.0,85,0.00,,,0.00,Wunderground v.1.15,2013-02-13 01:42:00,
2013-02-12 19:46:00,28.4,24.5,29.98,SE,134,0.0,0.0,85,0.00,,,0.00,Wunderground v.1.15,2013-02-13 01:46:00,
2013-02-12 19:47:00,28.4,24.5,29.98,SE,134,0.0,0.0,85,0.00,,,0.00,Wunderground v.1.15,2013-02-13 01:47:00,
2013-02-12 19:50:00,28.3,24.4,29.98,SE,134,0.0,0.0,85,0.00,,,0.00,Wunderground v.1.15,2013-02-13 01:50:00,
2013-02-12 19:51:00,28.3,24.4,29.98,SE,134,0.0,0.0,85,0.00,,,0.00,Wunderground v.1.15,2013-02-13 01:51:00,
2013-02-12 19:53:00,28.2,24.3,29.98,SE,134,0.0,0.0,85,0.00,,,0.00,Wunderground v.1.15,2013-02-13 01:53:00,
2013-02-12 19:55:00,28.1,24.2,29.98,SE,134,0.0,0.0,85,0.00,,,0.00,Wunderground v.1.15,2013-02-13 01:55:00,
2013-02-12 19:58:00,28.0,24.4,29.98,SE,134,0.0,0.0,86,0.00,,,0.00,Wunderground v.1.15,2013-02-13 01:58:00,
2013-02-12 19:59:00,28.0,24.4,29.98,SE,134,0.0,0.0,86,0.00,,,0.00,Wunderground v.1.15,2013-02-13 01:59:00,
2013-02-12 20:00:00,28.0,24.4,29.98,SE,134,0.0,0.0,86,0.00,,,0.00,Wunderground v.1.15,2013-02-13 02:00:00,
2013-02-12 20:01:00,28.1,24.5,29.98,SE,134,0.0,0.0,86,0.00,,,0.00,Wunderground v.1.15,2013-02-13 02:01:00,
2013-02-12 20:06:00,28.2,24.8,29.98,SE,134,0.0,0.0,87,0.00,,,0.00,Wunderground v.1.15,2013-02-13 02:06:00,
2013-02-12 20:07:00,28.2,24.8,29.98,SE,134,0.0,0.0,87,0.00,,,0.00,Wunderground v.1.15,2013-02-13 02:07:00,
2013-02-12 20:08:00,28.2,24.8,29.98,SE,134,0.0,0.0,87,0.00,,,0.00,Wunderground v.1.15,2013-02-13 02:08:00,
2013-02-12 20:13:00,28.3,24.9,29.97,SE,134,0.0,0.0,87,0.00,,,0.00,Wunderground v.1.15,2013-02-13 02:13:00,
2013-02-12 20:14:00,28.3,24.9,29.97,SE,134,0.0,0.0,87,0.00,,,0.00,Wunderground v.1.15,2013-02-13 02:14:00,
2013-02-12 20:16:00,28.3,24.9,29.97,SE,134,0.0,0.0,87,0.00,,,0.00,Wunderground v.1.15,2013-02-13 02:16:00,
2013-02-12 20:18:00,28.3,24.9,29.97,SE,141,0.0,0.0,87,0.00,,,0.00,Wunderground v.1.15,2013-02-13 02:18:00,
2013-02-12 20:21:00,28.3,25.2,29.97,SE,142,0.0,0.0,88,0.00,,,0.00,Wunderground v.1.15,2013-02-13 02:21:00,
2013-02-12 20:22:00,28.4,25.3,29.97,SE,142,0.0,0.0,88,0.00,,,0.00,Wunderground v.1.15,2013-02-13 02:22:00,
2013-02-12 20:24:00,28.5,25.4,29.97,South,189,0.0,0.0,88,0.00,,,0.00,Wunderground v.1.15,2013-02-13 02:24:00,
2013-02-12 20:26:00,28.6,25.5,29.97,SSW,211,0.0,0.0,88,0.00,,,0.00,Wunderground v.1.15,2013-02-13 02:26:00,
2013-02-12 20:27:00,28.6,25.8,29.97,SW,224,0.0,0.0,89,0.00,,,0.00,Wunderground v.1.15,2013-02-13 02:27:00,
2013-02-12 20:29:00,28.8,25.7,29.97,SW,233,0.0,0.0,88,0.00,,,0.00,Wunderground v.1.15,2013-02-13 02:29:00,
2013-02-12 20:30:00,28.8,25.7,29.97,SW,234,0.0,0.0,88,0.00,,,0.00,Wunderground v.1.15,2013-02-13 02:30:00,
2013-02-12 20:33:00,29.0,25.9,29.97,WSW,242,0.0,0.0,88,0.00,,,0.00,Wunderground v.1.15,2013-02-13 02:33:00,
2013-02-12 20:35:00,29.1,26.0,29.97,WSW,240,0.0,0.0,88,0.00,,,0.00,Wunderground v.1.15,2013-02-13 02:35:00,
2013-02-12 20:37:00,29.1,26.0,29.97,WSW,241,0.0,0.0,88,0.00,,,0.00,Wunderground v.1.15,2013-02-13 02:37:00,
2013-02-12 20:40:00,29.2,26.1,29.97,WSW,242,0.0,0.0,88,0.00,,,0.00,Wunderground v.1.15,2013-02-13 02:40:00,
2013-02-12 20:42:00,29.2,26.1,29.97,WSW,242,0.0,0.0,88,0.00,,,0.00,Wunderground v.1.15,2013-02-13 02:42:00,
2013-02-12 20:44:00,29.2,26.1,29.97,WSW,242,0.0,0.0,88,0.00,,,0.00,Wunderground v.1.15,2013-02-13 02:44:00,
2013-02-12 20:45:00,29.2,26.1,29.97,WSW,242,0.0,0.0,88,0.00,,,0.00,Wunderground v.1.15,2013-02-13 02:45:00,
2013-02-12 20:47:00,29.1,25.7,29.97,WSW,242,0.0,0.0,87,0.00,,,0.00,Wunderground v.1.15,2013-02-13 02:47:00,
2013-02-12 20:48:00,29.0,25.6,29.97,WSW,242,0.0,0.0,87,0.00,,,0.00,Wunderground v.1.15,2013-02-13 02:48:00,
2013-02-12 20:52:00,28.9,25.8,29.97,WSW,242,0.0,0.0,88,0.00,,,0.00,Wunderground v.1.15,2013-02-13 02:52:00,
2013-02-12 20:53:00,28.9,25.8,29.97,WSW,242,0.0,0.0,88,0.00,,,0.00,Wunderground v.1.15,2013-02-13 02:53:00,
2013-02-12 20:54:00,28.9,25.8,29.97,WSW,242,0.0,0.0,88,0.00,,,0.00,Wunderground v.1.15,2013-02-13 02:54:00,
2013-02-12 20:56:00,28.8,25.7,29.97,WSW,242,0.0,0.0,88,0.00,,,0.00,Wunderground v.1.15,2013-02-13 02:56:00,
2013-02-12 20:57:00,28.6,25.5,29.97,WSW,242,0.0,0.0,88,0.00,,,0.00,Wunderground v.1.15,2013-02-13 02:57:00,
2013-02-12 21:00:00,28.5,25.4,29.97,WSW,242,0.0,0.0,88,0.00,,,0.00,Wunderground v.1.15,2013-02-13 03:00:00,
2013-02-12 21:01:00,28.5,25.7,29.97,WSW,242,0.0,0.0,89,0.00,,,0.00,Wunderground v.1.15,2013-02-13 03:01:00,
2013-02-12 21:02:00,28.5,25.7,29.97,WSW,241,0.0,0.0,89,0.00,,,0.00,Wunderground v.1.15,2013-02-13 03:02:00,
2013-02-12 21:07:00,28.5,25.7,29.97,WSW,242,0.0,0.0,89,0.00,,,0.00,Wunderground v.1.15,2013-02-13 03:07:00,
2013-02-12 21:08:00,28.4,25.6,29.97,WSW,242,0.0,0.0,89,0.00,,,0.00,Wunderground v.1.15,2013-02-13 03:08:00,
2013-02-12 21:09:00,28.5,25.7,29.97,WSW,242,0.0,0.0,89,0.00,,,0.00,Wunderground v.1.15,2013-02-13 03:09:00,
2013-02-12 21:10:00,28.4,25.6,29.96,WSW,242,0.0,0.0,89,0.00,,,0.00,Wunderground v.1.15,2013-02-13 03:10:00,
2013-02-12 21:12:00,28.3,25.5,29.97,WSW,242,0.0,0.0,89,0.00,,,0.00,Wunderground v.1.15,2013-02-13 03:12:00,
2013-02-12 21:15:00,28.3,25.7,29.97,WSW,242,0.0,0.0,90,0.00,,,0.00,Wunderground v.1.15,2013-02-13 03:15:00,
2013-02-12 21:17:00,28.2,25.6,29.97,WSW,242,0.0,0.0,90,0.00,,,0.00,Wunderground v.1.15,2013-02-13 03:17:00,
2013-02-12 21:18:00,28.1,25.5,29.97,WSW,242,0.0,0.0,90,0.00,,,0.00,Wunderground v.1.15,2013-02-13 03:18:00,
2013-02-12 21:20:00,28.1,25.5,29.97,WSW,242,0.0,0.0,90,0.00,,,0.00,Wunderground v.1.15,2013-02-13 03:20:00,
2013-02-12 21:22:00,28.0,25.4,29.97,WSW,242,0.0,0.0,90,0.00,,,0.00,Wunderground v.1.15,2013-02-13 03:22:00,
2013-02-12 21:23:00,27.9,25.3,29.97,WSW,242,0.0,0.0,90,0.00,,,0.00,Wunderground v.1.15,2013-02-13 03:23:00,
2013-02-12 21:26:00,27.8,25.2,29.97,WSW,242,0.0,0.0,90,0.00,,,0.00,Wunderground v.1.15,2013-02-13 03:26:00,
2013-02-12 21:27:00,27.8,25.2,29.97,WSW,241,0.0,0.0,90,0.00,,,0.00,Wunderground v.1.15,2013-02-13 03:27:00,
2013-02-12 21:30:00,27.6,25.1,29.97,WSW,242,0.0,0.0,90,0.00,,,0.00,Wunderground v.1.15,2013-02-13 03:30:00,
2013-02-12 21:32:00,27.5,25.0,29.97,WSW,242,0.0,0.0,90,0.00,,,0.00,Wunderground v.1.15,2013-02-13 03:32:00,
2013-02-12 21:33:00,27.4,24.9,29.97,WSW,242,0.0,0.0,90,0.00,,,0.00,Wunderground v.1.15,2013-02-13 03:33:00,
2013-02-12 21:34:00,27.4,25.1,29.97,WSW,242,0.0,0.0,91,0.00,,,0.00,Wunderground v.1.15,2013-02-13 03:34:00,
2013-02-12 21:35:00,27.4,25.1,29.97,WSW,242,0.0,0.0,91,0.00,,,0.00,Wunderground v.1.15,2013-02-13 03:35:00,
2013-02-12 21:38:00,27.4,25.1,29.97,WSW,242,0.0,0.0,91,0.00,,,0.00,Wunderground v.1.15,2013-02-13 03:38:00,
2013-02-12 21:40:00,27.4,25.1,29.97,WSW,242,0.0,0.0,91,0.00,,,0.00,Wunderground v.1.15,2013-02-13 03:40:00,
2013-02-12 21:42:00,27.2,24.9,29.97,WSW,242,0.0,0.0,91,0.00,,,0.00,Wunderground v.1.15,2013-02-13 03:42:00,
2013-02-12 21:45:00,26.9,24.4,29.97,WSW,242,0.0,0.0,90,0.00,,,0.00,Wunderground v.1.15,2013-02-13 03:45:00,
2013-02-12 21:46:00,26.7,24.2,29.97,WSW,242,0.0,0.0,90,0.00,,,0.00,Wunderground v.1.15,2013-02-13 03:46:00,
2013-02-12 21:47:00,26.6,24.1,29.97,WSW,242,0.0,0.0,90,0.00,,,0.00,Wunderground v.1.15,2013-02-13 03:47:00,
2013-02-12 21:48:00,26.5,24.0,29.97,WSW,242,0.0,0.0,90,0.00,,,0.00,Wunderground v.1.15,2013-02-13 03:48:00,
2013-02-12 21:52:00,26.5,24.5,29.97,WSW,242,0.0,0.0,92,0.00,,,0.00,Wunderground v.1.15,2013-02-13 03:52:00,
2013-02-12 21:53:00,26.6,24.6,29.97,WSW,242,0.0,0.0,92,0.00,,,0.00,Wunderground v.1.15,2013-02-13 03:53:00,
2013-02-12 21:54:00,26.7,24.7,29.97,WSW,242,0.0,0.0,92,0.00,,,0.00,Wunderground v.1.15,2013-02-13 03:54:00,
2013-02-12 21:57:00,26.9,24.9,29.97,WSW,242,0.0,0.0,92,0.00,,,0.00,Wunderground v.1.15,2013-02-13 03:57:00,
2013-02-12 21:58:00,27.0,25.0,29.97,WSW,242,0.0,0.0,92,0.00,,,0.00,Wunderground v.1.15,2013-02-13 03:58:00,
2013-02-12 21:59:00,27.0,25.0,29.97,WSW,242,0.0,0.0,92,0.00,,,0.00,Wunderground v.1.15,2013-02-13 03:59:00,
2013-02-12 22:02:00,26.9,24.9,29.97,WSW,242,0.0,0.0,92,0.00,,,0.00,Wunderground v.1.15,2013-02-13 04:02:00,
2013-02-12 22:04:00,26.9,24.9,29.97,WSW,242,0.0,0.0,92,0.00,,,0.00,Wunderground v.1.15,2013-02-13 04:04:00,
2013-02-12 22:05:00,26.9,24.9,29.97,WSW,242,0.0,0.0,92,0.00,,,0.00,Wunderground v.1.15,2013-02-13 04:05:00,
2013-02-12 22:09:00,26.7,24.4,29.97,WSW,242,0.0,0.0,91,0.00,,,0.00,Wunderground v.1.15,2013-02-13 04:09:00,
2013-02-12 22:10:00,26.7,24.4,29.97,WSW,242,0.0,0.0,91,0.00,,,0.00,Wunderground v.1.15,2013-02-13 04:10:00,
2013-02-12 22:11:00,26.7,24.4,29.97,WSW,242,0.0,0.0,91,0.00,,,0.00,Wunderground v.1.15,2013-02-13 04:11:00,
2013-02-12 22:14:00,26.5,24.2,29.97,WSW,241,0.0,0.0,91,0.00,,,0.00,Wunderground v.1.15,2013-02-13 04:14:00,
2013-02-12 22:15:00,26.4,24.1,29.97,WSW,242,0.0,0.0,91,0.00,,,0.00,Wunderground v.1.15,2013-02-13 04:15:00,
2013-02-12 22:17:00,26.2,23.9,29.97,WSW,242,0.0,0.0,91,0.00,,,0.00,Wunderground v.1.15,2013-02-13 04:17:00,
2013-02-12 22:18:00,26.2,23.9,29.97,WSW,242,0.0,0.0,91,0.00,,,0.00,Wunderground v.1.15,2013-02-13 04:18:00,
2013-02-12 22:19:00,26.1,23.8,29.97,WSW,242,0.0,0.0,91,0.00,,,0.00,Wunderground v.1.15,2013-02-13 04:19:00,
2013-02-12 22:22:00,26.1,24.1,29.97,WSW,242,0.0,0.0,92,0.00,,,0.00,Wunderground v.1.15,2013-02-13 04:22:00,
2013-02-12 22:23:00,26.2,24.2,29.97,WSW,242,0.0,0.0,92,0.00,,,0.00,Wunderground v.1.15,2013-02-13 04:23:00,
2013-02-12 22:24:00,26.2,24.2,29.97,WSW,242,0.0,0.0,92,0.00,,,0.00,Wunderground v.1.15,2013-02-13 04:24:00,
2013-02-12 22:28:00,26.3,24.3,29.97,WSW,242,0.0,0.0,92,0.00,,,0.00,Wunderground v.1.15,2013-02-13 04:28:00,
2013-02-12 22:30:00,26.3,24.3,29.97,WSW,242,0.0,0.0,92,0.00,,,0.00,Wunderground v.1.15,2013-02-13 04:30:00,
2013-02-12 22:31:00,26.2,24.2,29.97,WSW,241,0.0,0.0,92,0.00,,,0.00,Wunderground v.1.15,2013-02-13 04:31:00,
2013-02-12 22:32:00,26.2,24.2,29.97,WSW,242,0.0,0.0,92,0.00,,,0.00,Wunderground v.1.15,2013-02-13 04:32:00,
2013-02-12 22:37:00,26.3,24.3,29.97,WSW,242,0.0,0.0,92,0.00,,,0.00,Wunderground v.1.15,2013-02-13 04:37:00,
2013-02-12 22:38:00,26.4,24.4,29.96,WSW,242,0.0,0.0,92,0.00,,,0.00,Wunderground v.1.15,2013-02-13 04:38:00,
2013-02-12 22:39:00,26.5,24.5,29.96,WSW,242,0.0,0.0,92,0.00,,,0.00,Wunderground v.1.15,2013-02-13 04:39:00,
2013-02-12 22:42:00,26.5,24.5,29.96,WSW,242,0.0,0.0,92,0.00,,,0.00,Wunderground v.1.15,2013-02-13 04:42:00,
2013-02-12 22:43:00,26.5,24.5,29.96,WSW,242,0.0,0.0,92,0.00,,,0.00,Wunderground v.1.15,2013-02-13 04:43:00,
2013-02-12 22:44:00,26.4,24.4,29.96,WSW,242,0.0,0.0,92,0.00,,,0.00,Wunderground v.1.15,2013-02-13 04:44:00,
2013-02-12 22:45:00,26.3,24.3,29.96,WSW,242,0.0,0.0,92,0.00,,,0.00,Wunderground v.1.15,2013-02-13 04:45:00,
2013-02-12 22:50:00,26.1,24.1,29.96,WSW,242,0.0,0.0,92,0.00,,,0.00,Wunderground v.1.15,2013-02-13 04:50:00,
2013-02-12 22:51:00,26.2,24.2,29.96,WSW,242,0.0,0.0,92,0.00,,,0.00,Wunderground v.1.15,2013-02-13 04:51:00,
2013-02-12 22:52:00,26.2,24.2,29.96,WSW,243,0.0,0.0,92,0.00,,,0.00,Wunderground v.1.15,2013-02-13 04:52:00,
2013-02-12 22:57:00,26.2,24.2,29.95,WSW,242,0.0,0.0,92,0.00,,,0.00,Wunderground v.1.15,2013-02-13 04:57:00,
2013-02-12 22:58:00,26.2,24.2,29.95,WSW,241,0.0,0.0,92,0.00,,,0.00,Wunderground v.1.15,2013-02-13 04:58:00,
2013-02-12 23:00:00,26.2,24.2,29.95,WSW,242,0.0,0.0,92,0.00,,,0.00,Wunderground v.1.15,2013-02-13 05:00:00,
2013-02-12 23:01:00,26.2,24.2,29.95,WSW,242,0.0,0.0,92,0.00,,,0.00,Wunderground v.1.15,2013-02-13 05:01:00,
2013-02-12 23:02:00,26.1,24.1,29.95,WSW,242,0.0,0.0,92,0.00,,,0.00,Wunderground v.1.15,2013-02-13 05:02:00,
2013-02-12 23:04:00,26.1,24.1,29.95,WSW,242,0.0,0.0,92,0.00,,,0.00,Wunderground v.1.15,2013-02-13 05:04:00,
2013-02-12 23:06:00,26.0,24.0,29.95,WSW,241,0.0,0.0,92,0.00,,,0.00,Wunderground v.1.15,2013-02-13 05:06:00,
2013-02-12 23:07:00,26.0,24.0,29.95,WSW,242,0.0,0.0,92,0.00,,,0.00,Wunderground v.1.15,2013-02-13 05:07:00,
2013-02-12 23:08:00,26.1,24.1,29.95,WSW,242,0.0,0.0,92,0.00,,,0.00,Wunderground v.1.15,2013-02-13 05:08:00,
2013-02-12 23:11:00,26.0,24.0,29.95,WSW,242,0.0,0.0,92,0.00,,,0.00,Wunderground v.1.15,2013-02-13 05:11:00,
2013-02-12 23:12:00,25.9,23.9,29.95,WSW,242,0.0,0.0,92,0.00,,,0.00,Wunderground v.1.15,2013-02-13 05:12:00,
2013-02-12 23:13:00,25.9,23.9,29.95,WSW,242,0.0,0.0,92,0.00,,,0.00,Wunderground v.1.15,2013-02-13 05:13:00,
2013-02-12 23:14:00,25.9,23.9,29.95,WSW,242,0.0,0.0,92,0.00,,,0.00,Wunderground v.1.15,2013-02-13 05:14:00,
2013-02-12 23:16:00,25.8,23.8,29.95,WSW,242,0.0,0.0,92,0.00,,,0.00,Wunderground v.1.15,2013-02-13 05:16:00,
2013-02-12 23:18:00,25.7,23.7,29.95,WSW,242,0.0,0.0,92,0.00,,,0.00,Wunderground v.1.15,2013-02-13 05:18:00,
2013-02-12 23:20:00,25.7,23.7,29.95,WSW,242,0.0,0.0,92,0.00,,,0.00,Wunderground v.1.15,2013-02-13 05:20:00,
2013-02-12 23:21:00,25.6,23.6,29.95,WSW,242,0.0,0.0,92,0.00,,,0.00,Wunderground v.1.15,2013-02-13 05:21:00,
2013-02-12 23:23:00,25.5,23.5,29.95,WSW,242,0.0,0.0,92,0.00,,,0.00,Wunderground v.1.15,2013-02-13 05:23:00,
2013-02-12 23:25:00,25.4,23.4,29.95,WSW,243,0.0,0.0,92,0.00,,,0.00,Wunderground v.1.15,2013-02-13 05:25:00,
2013-02-12 23:26:00,25.4,23.4,29.95,WSW,242,0.0,0.0,92,0.00,,,0.00,Wunderground v.1.15,2013-02-13 05:26:00,
2013-02-12 23:28:00,25.4,23.4,29.95,WSW,242,0.0,0.0,92,0.00,,,0.00,Wunderground v.1.15,2013-02-13 05:28:00,
2013-02-12 23:30:00,25.6,23.9,29.95,WSW,242,0.0,0.0,93,0.00,,,0.00,Wunderground v.1.15,2013-02-13 05:30:00,
2013-02-12 23:33:00,25.7,24.0,29.95,WSW,242,0.0,0.0,93,0.00,,,0.00,Wunderground v.1.15,2013-02-13 05:33:00,
2013-02-12 23:34:00,25.8,24.1,29.95,WSW,242,0.0,0.0,93,0.00,,,0.00,Wunderground v.1.15,2013-02-13 05:34:00,
2013-02-12 23:36:00,25.9,24.2,29.95,WSW,242,0.0,0.0,93,0.00,,,0.00,Wunderground v.1.15,2013-02-13 05:36:00,
2013-02-12 23:39:00,25.9,24.2,29.95,WSW,242,0.0,0.0,93,0.00,,,0.00,Wunderground v.1.15,2013-02-13 05:39:00,
2013-02-12 23:41:00,25.9,24.2,29.95,WSW,242,0.0,0.0,93,0.00,,,0.00,Wunderground v.1.15,2013-02-13 05:41:00,
2013-02-12 23:42:00,25.9,24.2,29.95,WSW,242,0.0,0.0,93,0.00,,,0.00,Wunderground v.1.15,2013-02-13 05:42:00,
2013-02-12 23:44:00,25.8,24.1,29.95,WSW,242,0.0,0.0,93,0.00,,,0.00,Wunderground v.1.15,2013-02-13 05:44:00,
2013-02-12 23:48:00,25.5,23.5,29.95,WSW,243,0.0,0.0,92,0.00,,,0.00,Wunderground v.1.15,2013-02-13 05:48:00,
2013-02-12 23:49:00,25.4,23.4,29.95,WSW,242,0.0,0.0,92,0.00,,,0.00,Wunderground v.1.15,2013-02-13 05:49:00,
2013-02-12 23:50:00,25.4,23.4,29.95,WSW,242,0.0,0.0,92,0.00,,,0.00,Wunderground v.1.15,2013-02-13 05:50:00,
2013-02-12 23:53:00,25.3,23.3,29.95,WSW,242,0.0,0.0,92,0.00,,,0.00,Wunderground v.1.15,2013-02-13 05:53:00,
2013-02-12 23:55:00,25.2,23.5,29.95,WSW,242,0.0,0.0,93,0.00,,,0.00,Wunderground v.1.15,2013-02-13 05:55:00,
2013-02-12 23:58:00,25.1,23.4,29.95,WSW,241,0.0,0.0,93,0.00,,,0.00,Wunderground v.1.15,2013-02-13 05:58:00,